TimeMST,TemperatureF,Dew PointF,Humidity,Sea Level PressureIn,VisibilityMPH,Wind Direction,Wind SpeedMPH,Gust SpeedMPH,PrecipitationIn,Events,Conditions,WindDirDegrees,DateUTC
12:54 AM,37.0,32.0,82,29.99,10.0,SW,5.8,-,N/A,,Mostly Cloudy,220,2013-02-07 07:54:00
1:54 AM,36.0,33.1,89,30.00,10.0,Calm,Calm,-,N/A,,Overcast,0,2013-02-07 08:54:00
2:54 AM,36.0,32.0,86,29.99,10.0,Calm,Calm,-,N/A,,Overcast,0,2013-02-07 09:54:00
3:54 AM,34.0,30.9,89,29.99,10.0,Calm,Calm,-,N/A,,Overcast,0,2013-02-07 10:54:00
4:54 AM,34.0,30.0,85,30.01,10.0,Calm,Calm,-,N/A,,Clear,0,2013-02-07 11:54:00
5:54 AM,30.0,28.0,92,30.07,9.0,Calm,Calm,-,N/A,,Clear,0,2013-02-07 12:54:00
6:54 AM,27.0,26.1,96,30.10,9.0,South,3.5,-,N/A,,Clear,190,2013-02-07 13:54:00
7:54 AM,28.0,25.0,88,30.13,8.0,Calm,Calm,-,N/A,,Clear,0,2013-02-07 14:54:00
8:54 AM,37.9,33.1,83,30.12,10.0,South,4.6,-,N/A,,Clear,190,2013-02-07 15:54:00
9:54 AM,41.0,33.1,73,30.12,10.0,Calm,Calm,-,N/A,,Clear,0,2013-02-07 16:54:00
10:54 AM,44.1,33.1,65,30.11,10.0,Calm,Calm,-,N/A,,Clear,0,2013-02-07 17:54:00
11:54 AM,48.0,33.1,56,30.09,10.0,Variable,3.5,-,N/A,,Clear,0,2013-02-07 18:54:00
12:54 PM,50.0,30.0,46,30.04,10.0,Variable,3.5,-,N/A,,Scattered Clouds,0,2013-02-07 19:54:00
1:54 PM,52.0,24.1,34,30.01,10.0,Variable,3.5,-,N/A,,Clear,0,2013-02-07 20:54:00
2:54 PM,52.0,23.0,32,29.99,10.0,Variable,4.6,-,N/A,,Clear,0,2013-02-07 21:54:00
3:54 PM,54.0,23.0,30,29.97,10.0,NNE,3.5,-,N/A,,Clear,30,2013-02-07 22:54:00
4:54 PM,53.1,23.0,31,29.97,10.0,ENE,3.5,-,N/A,,Clear,60,2013-02-07 23:54:00
5:54 PM,48.9,25.0,39,30.00,10.0,NE,5.8,-,N/A,,Clear,40,2013-02-08 00:54:00
6:54 PM,44.1,25.0,47,30.03,10.0,Calm,Calm,-,N/A,,Partly Cloudy,0,2013-02-08 01:54:00
7:54 PM,39.0,25.0,57,30.05,10.0,SSE,4.6,-,N/A,,Partly Cloudy,160,2013-02-08 02:54:00
8:54 PM,36.0,24.1,62,30.02,10.0,South,3.5,-,N/A,,Clear,190,2013-02-08 03:54:00
9:54 PM,37.0,25.0,62,30.01,10.0,South,5.8,-,N/A,,Clear,180,2013-02-08 04:54:00
10:54 PM,35.1,24.1,64,29.99,10.0,South,6.9,-,N/A,,Clear,170,2013-02-08 05:54:00
11:54 PM,30.0,23.0,75,29.98,10.0,Calm,Calm,-,N/A,,Clear,0,2013-02-08 06:54:00